Location: Brunembert
(50.7122°N, 1.8935°E)
Time: 01:31:31
(UTC+00:00)

Cosmos 1500 Rocket - Pass Details

Date: 03 August 2021
Orbit: 602 x 632 km, 82.5° (Epoch: 18 September)

Event Time Altitude Azimuth Distance (km) Brightness Sun altitude
Exits shadow 21:07:33 19° 143° (SE) 1,515 4.9 -12.4°
Maximum altitude 21:10:06 33° 90° (E) 1,054 4.4 -12.6°
Drops below altitude 10° 21:14:07 10° 27° (NNE) 2,020 6.5 -13.1°
Sets 21:16:31 0° 18° (NNE) 2,936 7.5 -13.3°
